PRAETORIAN SDA_604

基本信息
目录编号:
65568
目录名称:
PRAETORIAN SDA_605
国际标识:
2025-203D
轨道中心:
EARTH
卫星名称:
PRAETORIAN SDA_604
卫星全名:
PRAETORIAN SDA_604
卫星状态:
在轨 (已飞行40 天)
发射日期:
2025-09-10 UTC
国别 :
美国 (US)
星等 :
--
轨道信息
数据来源 国际轨道数据
星历时间: 2025-10-20T21:54:43+0800
10小时前
查看轨道信息
半长轴: 7323.691km
偏心率: 0.001023
轨道倾角: 81.302°
近地点辐角 117.600°
升交点赤经 232.702°
平近点角 242.620°
近地点: 938.063km
远地点: 953.049km
周期: 103.957分钟
每日圈数: 13.851849
详细信息
使用方式:
暂无
2D轨道图
3D轨道图
轨道高度分析图
轨道倾角分析图
轨道综合分析图
查看轨道综合分析图